Teterboro, NJ

7:53 PM EST on February 24, 2018 (GMT -0500)
Teterboro

Weather History for KTEB - October, 2013

Change the Weather History Date:

Saturday, October 19, 2013

  Actual Average Record
Temperature  
Mean Temperature 55 °F -  
Max Temperature 66 °F 61 °F 87 °F (2016)
Min Temperature 46 °F 42 °F 28 °F (2015)
Degree Days  
Heating Degree Days 10    
Growing Degree Days 5 (Base 50)    
Moisture  
Dew Point 45 °F    
Average Humidity 62    
Maximum Humidity 80    
Minimum Humidity 42    
Precipitation  
Precipitation 0.00 in - - ()
Sea Level Pressure  
Sea Level Pressure 29.88 in    
Wind  
Wind Speed 4 mph (South)    
Max Wind Speed 12 mph    
Max Gust Speed 46 mph    
Visibility 10 miles    
Events Rain    
Averages and records for this station are not official NWS values.
T = Trace of Precipitation, MM = Missing Value Source: NWS Daily Summary

Daily Weather History Graph

Daily Weather History Graph

Search for Another Location

Airport or City:

Trip Planner

Search our weather history database for the weather conditions in past years. The results will help you decide how hot, cold, wet, or windy it might be!

Date:

Astronomy

Oct. 19, 2013 Rise Set
Actual Time 7:12 AM EDT 6:09 PM EDT
Civil Twilight 6:44 AM EDT 6:37 PM EDT
Nautical Twilight 6:12 AM EDT 7:09 PM EDT
Astronomical Twilight 5:40 AM EDT 7:40 PM EDT
Moon 6:35 PM EDT (10/19) 7:47 AM EDT (10/19)
Length of Visible Light 11h 52m
Length of Day
10h 57m
Waxing Gibbous, 99% of the Moon is Illuminated
Oct 19
Waxing Gibbous
Oct 26
Last Quarter
Nov 3
New
Nov 10
First Quarter
Nov 17
Full

Hourly Weather History & Observations

Time (EDT) Temp. Dew Point Humidity Pressure Visibility Wind Dir Wind Speed Gust Speed Precip Events Conditions
12:51 AM 54.0 °F 39.0 °F 57% 29.98 in 10.0 mi WNW 5.8 mph - N/A   Clear
1:51 AM 52.0 °F 39.9 °F 63% 29.98 in 10.0 mi Calm Calm - N/A   Clear
2:51 AM 50.0 °F 39.9 °F 68% 29.98 in 10.0 mi Calm Calm - N/A   Clear
3:51 AM 50.0 °F 39.9 °F 68% 29.98 in 10.0 mi Calm Calm - N/A   Clear
4:51 AM 48.0 °F 39.9 °F 74% 29.98 in 10.0 mi Calm Calm - N/A   Clear
5:51 AM 46.9 °F 39.0 °F 74% 29.97 in 10.0 mi Calm Calm - N/A   Clear
6:51 AM 48.0 °F 42.1 °F 80% 29.97 in 10.0 mi Calm Calm - N/A   Clear
7:51 AM 48.0 °F 42.1 °F 80% 29.97 in 10.0 mi Calm Calm - N/A   Clear
8:51 AM 50.0 °F 42.1 °F 74% 29.98 in 10.0 mi Calm Calm - N/A   Clear
9:51 AM 53.1 °F 43.0 °F 69% 29.97 in 10.0 mi Calm Calm - N/A   Clear
10:51 AM 59.0 °F 43.0 °F 55% 29.97 in 10.0 mi Calm Calm - N/A   Clear
11:51 AM 63.0 °F 42.1 °F 46% 29.96 in 10.0 mi SSW 4.6 mph - N/A   Clear
12:51 PM 64.0 °F 41.0 °F 43% 29.93 in 10.0 mi South 5.8 mph - N/A   Clear
1:51 PM 64.9 °F 41.0 °F 42% 29.90 in 10.0 mi South 9.2 mph - N/A   Clear
2:51 PM 64.9 °F 46.0 °F 50% 29.87 in 10.0 mi South 11.5 mph - N/A   Mostly Cloudy
3:51 PM 64.0 °F 46.9 °F 54% 29.85 in 10.0 mi South 9.2 mph 46.0 mph N/A   Mostly Cloudy
4:05 PM 64.4 °F 46.4 °F 52% 29.83 in 10.0 mi South 11.5 mph - N/A   Mostly Cloudy
4:51 PM 64.0 °F 46.9 °F 54% 29.80 in 10.0 mi SSE 8.1 mph - N/A   Scattered Clouds
5:51 PM 63.0 °F 48.9 °F 60% 29.81 in 10.0 mi South 8.1 mph - N/A   Scattered Clouds
6:51 PM 63.0 °F 48.0 °F 58% 29.80 in 10.0 mi South 8.1 mph - N/A   Mostly Cloudy
7:51 PM 62.1 °F 46.0 °F 56% 29.78 in 10.0 mi South 8.1 mph - 0.00 in   Scattered Clouds
8:51 PM 61.0 °F 48.0 °F 62% 29.77 in 10.0 mi South 5.8 mph - N/A   Overcast
9:25 PM 60.8 °F 48.2 °F 63% 29.77 in 10.0 mi South 6.9 mph - N/A   Overcast
9:51 PM 62.1 °F 50.0 °F 65% 29.77 in 10.0 mi South 8.1 mph - N/A   Overcast
10:27 PM 60.8 °F 51.8 °F 72% 29.76 in 10.0 mi South 5.8 mph - 0.00 in Rain Light Rain
10:51 PM 61.0 °F 52.0 °F 72% 29.76 in 10.0 mi SSW 9.2 mph - 0.00 in   Overcast
11:51 PM 61.0 °F 52.0 °F 72% 29.75 in 10.0 mi SW 9.2 mph - 0.00 in   Overcast